Regional Weather Roundup
Issued by NWS Boston, MA

Home | Current Version | Previous Version | Text Only | Print | Product List | Glossary On
Versions: 1 2 3 4 5 6 7 8 9 10 11 12 13 14 15 16 17 18 19 20 21 22 23 24 25 26 27
000
ASUS41 KBOX 210210
RWRBOX

REGIONAL WEATHER ROUNDUP
NATIONAL WEATHER SERVICE TAUNTON MA
1000 PM EDT SUN AUG 20 2017

NOTE:  "FAIR" INDICATES FEW OR NO CLOUDS BELOW 12,000 FEET WITH NO
SIGNIFICANT WEATHER AND/OR OBSTRUCTIONS TO VISIBILITY.

MAZALL-210300-
EASTERN MASSACHUSETTS

CITY           SKY/WX    TMP DP  RH WIND       PRES   REMARKS
BOSTON         CLEAR     75  56  51 W8        30.08R
BEVERLY        CLEAR     64  58  80 CALM      30.07R
LAWRENCE       CLEAR     69  58  67 CALM      30.10R
BEDFORD        CLEAR     64  57  78 W3        30.07R
BLUE HILL        N/A     70  54  56 W9        30.10R
NORWOOD        CLEAR     61  58  90 CALM      30.08R
MARSHFIELD     CLEAR     66  61  82 W3        30.08R
PLYMOUTH       CLEAR     67  57  70 CALM      30.09R
TAUNTON        CLEAR     61  58  90 CALM      30.08R
NEW BEDFORD    CLEAR     64  60  87 CALM      30.08R
$$

MAZALL-210300-
CAPE COD AND THE ISLANDS

CITY           SKY/WX    TMP DP  RH WIND       PRES   REMARKS
FALMOUTH       NOT AVBL
HYANNIS        CLEAR     66  62  87 CALM      30.07R
CHATHAM        CLEAR     68  64  87 NW3       30.09R
PROVINCETOWN   CLEAR     66  62  87 SW5       30.08R
NANTUCKET      CLEAR     67  66  97 NW3       30.08R
MARTHAS VNYRD  CLEAR     64  62  93 NW5       30.09R
$$

MAZALL-210300-
CENTRAL AND WESTERN MASSACHUSETTS

CITY           SKY/WX    TMP DP  RH WIND       PRES   REMARKS
WORCESTER      CLEAR     68  55  63 W10       30.13R
FITCHBURG      CLEAR     67  60  78 CALM      30.11R
ORANGE         CLEAR     64  63  96 CALM      30.11R
SPRINGFIELD    CLEAR     62  58  88 CALM      30.10R
WESTFIELD      CLEAR     64  60  87 CALM      30.11R
NORTH ADAMS    CLEAR     61  59  93 CALM      30.13R
PITTSFIELD     CLEAR     59  57  93 CALM      30.14R
$$

RIZALL-210300-
RHODE ISLAND

CITY           SKY/WX    TMP DP  RH WIND       PRES   REMARKS
PROVIDENCE     CLEAR     72  60  66 W5        30.10R
NEWPORT        CLEAR     66  63  90 CALM      30.09R
BLOCK ISLAND   CLEAR     72  61  68 W7        30.11R
WESTERLY       CLEAR     70  62  76 CALM      30.11R
$$

CTZALL-210300-
CONNECTICUT

CITY           SKY/WX    TMP DP  RH WIND       PRES   REMARKS
BRADLEY INTL   PTCLDY    69  60  73 W5        30.11R
HARTFORD       CLEAR     70  62  76 CALM      30.11R
BRIDGEPORT     CLEAR     74  61  63 CALM      30.12R
DANBURY        CLEAR     64  62  93 SW5       30.15R
GROTON         CLEAR     69  60  73 NW5       30.10R
NEW HAVEN      CLEAR     68  60  75 CALM      30.13R
CHESTER        FAIR      72  59  64 CALM      30.13R
MERIDEN        CLEAR     65  60  84 CALM      30.12R
WILLIMANTIC    CLEAR     66  62  87 CALM      30.12R
OXFORD         CLEAR     63  60  90 CALM      30.16R
$$

MEZ002-015-021-024-NHZ003-005-008-011-012-014-VTZ005-008-210300-
NORTHERN NEW ENGLAND

CITY           SKY/WX    TMP DP  RH WIND       PRES   REMARKS
PORTLAND ME    CLEAR     68  54  60 W5        30.05R
BANGOR ME      CLEAR     67  56  67 SW5       30.01R
CONCORD NH     CLEAR     63  59  87 CALM      30.08R
MANCHESTER NH  CLEAR     69  58  67 S5        30.07R
NASHUA NH      CLEAR     66  61  84 NW5       30.09R
PORTSMOUTH NH  CLEAR     65  60  81 W6        30.06R
JAFFREY NH     CLEAR     62  62 100 CALM      30.13R
KEENE NH         N/A    N/A N/A N/A MISG        N/A
BURLINGTON VT  CLEAR     68  62  81 SE5       30.07R
MT. WASHINGTON FOG       46  46 100 NW53        N/A  VSB 1/16
$$

NYZ052-076-210300-
EASTERN NEW YORK

CITY           SKY/WX    TMP DP  RH WIND       PRES   REMARKS
ALBANY         PTCLDY    69  59  70 CALM      30.11R
NEW YORK CITY  PTCLDY    80  62  54 NW7       30.13R
$$

ANZALL-210300-
MARINE OBSERVATIONS

STATION/POSITION TIME  TEMP    WIND        PRES    VSBY  WAVE
                       AIR SEA DIR/SP/G                  HT/PER
                 (UTC) (F)     (DEG/KT/KT) (MB)    (MI)  (FT/S)
BOSTON BUOY      0050   71 67  300/  4/  6 1017.1          2/ 6
BUZZARDS BAY     0100   76     290/  9/  9 1018.7R
NANTUCKET SOUND  0050   73 72  310/  4/  6 1017.8          1
MASS BAY-STELLWA 0104   70 67  280/  6/  6 1016.7R         2/ 6
ISLE OF SHOALS   0100   73     280/  6/  7 1017.2R
S OF BLOCK IS    NOT AVBL
$$

......................KEY.........................
  SKY/WX - SKY CONDITION/PRESENT WEATHER
  TMP    - TEMPERATURE IN FAHRENHEIT
  DWPT   - DEWPOINT IN FAHRENHEIT
  RH     - RELATIVE HUMIDITY IN PERCENT
  WIND   - DIRECTION AND SPEED IN MPH
  PRES   - MEAN SEA LEVEL PRESSURE IN INCHES OF HG
  WCI    - WIND CHILL INDEX
  VSB    - VISIBILITY IN MILES
  HX     - HEAT INDEX
  TC     - TEMPERATURE IN CELSIUS
  VRB    - VARIABLE WIND DIRECTION
  N/A    - NOT AVAILABLE




USA.gov is the U.S. government's official web portal to all federal, state and local government web resources and services.